Location: Huisseau
(47.5933°N, 1.4533°E)
Time: 17:34:47
(UTC+00:00)

CENTAUR R/B - Pass Details

Date: 23 November 2025
Orbit: 633 x 1547 km, 63.4° (Epoch: 06 December)

Event Time Altitude Azimuth Distance (km) Brightness Sun altitude
Exits shadow 02:43:27 46° 92° (E) 1,876 4.0 -44.3°
Drops below altitude 10° 02:50:08 10° 121° (ESE) 3,697 5.8 -43.2°
Sets 02:53:21 0° 125° (SE) 4,702 6.4 -42.7°
